STARLINK-36075, 66905

Orbit data source: Space-Track

STARLINK-36075, 66905 is a payload satellite owned by SpaceX/Seattle (US) in LEO that was launched on Thu, 04 Dec 2025 UTC via an FALCON 9 launch vehicle from the Air Force Western Test Range (AFWTR). Payload-class satellites include a variety of spacecraft equipped with specific instruments for various scientific and technological missions. These include communications satellites like Starlink; space stations such as the ISS; scientific satellites like the Hubble; Earth observation satellites from companies like Planet Labs, Umbra, and HawkEye 360; GPS; miniature CubeSats for education and research; and military/defense satellites.

Loading next visibility...
Identifier
66905, 2025-283AD
Orbit
LEO
Country
Flag of USUS
Related business
Manufacturer
SpaceX/Seattle
Mission
Operational Commercial Communications
Bus & Motor
STARLINK V2MO, Unknown motor
Mass
575 kg wet, ~530 kg dry
Launch date (UTC)
2025-12-04 (7 months ago)
Launch vehicle
FALCON 9
Launch site
Air Force Western Test Range (AFWTR)
Object type
Payload
Rocket body
Debris
Shape & HBR
Box + 2 Pan, 17.7 m
Radar Cross Section
36.964 m², Large (>1 m²)

Expand to show TLE details & history
Last TLE update: 1 day ago

TLE from 1 day ago
0 STARLINK-36075
1 66905U 25283AD  26170.54585179  .00017437  00000-0  59935-3 0  9992
2 66905  53.1594 271.4188 0001371  91.9681 268.1477 15.30205339 31439
Epoch: 2026-06-19T13:06Z
TLE epoch observation values (Epoch: 2026-06-19T13:06:01.594Z)
Latitude
-0.00001°
Longitude
167.13887°
Altitude
476.129 km
Speed
7.629 km/s
True Right ascension
18h 05m 40s
True Declination
0° 00' 00"
Sunlit
Object was in full shadow at epoch
Visualization orbit readout
Latitude
Unknown
Longitude
Unknown
Altitude
Unknown
Speed
Unknown
Apparent Right ascension
Unknown
Apparent Declination
Unknown
Sunlit
N/A
Visualization observer readout
Local Sidereal Time
07:14:24
Azimuth
Unknown
Elevation
Unknown
Doppler factor
Unknown
Orbital elements
Apogee altitude
476.395 km
Perigee altitude
474.516 km
Semi-major axis
6,853.593 km
Eccentricity
0.00014
Inclination
53.1594°
RAAN
271.4188°
Arg. of periapsis
91.9681°
True anomaly
268.132°
Mean anomaly
268.1477°
Eccentric anomaly
268.13985°
Mean motion
3.8253 °/min
Orbital period
94.11 mins
BSTAR
0.00059935
Loading maneuver chart data...
Computing Atmospheric mass density...
Loading historical data...
Loading historical data...
Loading historical data...
Loading historical data...
Loading historical data...
Loading historical data...
Loading historical data...

Documentation

Showing up to 5 results
|